South Lake Tahoe, CA

8:43 AM PST on December 05, 2016 (GMT -0800)
Lake Tahoe

Weather History for KTVL - March, 2014

Change the Weather History Date:

Wednesday, March 19, 2014

  Actual Average Record
Temperature  
Mean Temperature 40 °F 36 °F  
Max Temperature 59 °F 49 °F 65 °F (2015)
Min Temperature 20 °F 23 °F 2 °F (2012)
Degree Days  
Heating Degree Days 25 29  
Month to date heating degree days 466 578  
Since 1 July heating degree days 5081 5815  
Cooling Degree Days 0 0  
Month to date cooling degree days 0 0  
Year to date cooling degree days 0 0  
Moisture  
Dew Point 18 °F    
Average Humidity 47    
Maximum Humidity 78    
Minimum Humidity 16    
Precipitation  
Precipitation 0.00 in - 1.81 in (1952)
Month to date precipitation 0.80  
Year to date precipitation 9.04  
Sea Level Pressure  
Sea Level Pressure 30.11 in    
Wind  
Wind Speed 3 mph (SSW)    
Max Wind Speed 13 mph    
Max Gust Speed 19 mph    
Visibility 10 miles    
Events      
T = Trace of Precipitation, MM = Missing Value Source: NWS Daily Summary

Daily Weather History Graph

Daily Weather History Graph

Search for Another Location

Airport or City:

Trip Planner

Search our weather history database for the weather conditions in past years. The results will help you decide how hot, cold, wet, or windy it might be!

Date:

Astronomy

Mar. 19, 2014 Rise Set
Actual Time 7:04 AM PDT 7:11 PM PDT
Civil Twilight 6:38 AM PDT 7:37 PM PDT
Nautical Twilight 6:07 AM PDT 8:08 PM PDT
Astronomical Twilight 5:35 AM PDT 8:40 PM PDT
Moon 10:32 PM PDT (3/19) 8:35 AM PDT (3/19)
Length of Visible Light 12h 59m
Length of Day
12h 06m
Waning Gibbous, 90% of the Moon is Illuminated
Mar 19
Waning Gibbous
Mar 23
Last Quarter
Mar 30
New
Apr 7
First Quarter
Apr 15
Full

Hourly Weather History & Observations

Time (PDT) Temp. Windchill Dew Point Humidity Pressure Visibility Wind Dir Wind Speed Gust Speed Precip Events Conditions
12:53 AM 26.1 °F - 14.0 °F 60% 30.08 in 10.0 mi Calm Calm - N/A   Clear
1:53 AM 24.1 °F - 12.9 °F 62% 30.08 in 10.0 mi Calm Calm - N/A   Clear
2:53 AM 23.0 °F 18.4 °F 14.0 °F 68% 30.09 in 10.0 mi South 3.5 mph - N/A   Clear
3:53 AM 21.9 °F 15.7 °F 12.9 °F 68% 30.08 in 10.0 mi South 4.6 mph - N/A   Clear
4:53 AM 21.0 °F 16.2 °F 12.9 °F 71% 30.09 in 10.0 mi South 3.5 mph - N/A   Clear
5:53 AM 21.0 °F 16.2 °F 12.0 °F 68% 30.09 in 10.0 mi South 3.5 mph - N/A   Clear
6:53 AM 21.0 °F - 12.0 °F 68% 30.13 in 10.0 mi Calm Calm - N/A   Clear
7:53 AM 21.9 °F 13.4 °F 12.9 °F 68% 30.16 in 10.0 mi South 6.9 mph - N/A   Clear
8:53 AM 30.9 °F 27.5 °F 18.0 °F 59% 30.16 in 10.0 mi South 3.5 mph - N/A   Clear
9:53 AM 42.1 °F - 17.1 °F 37% 30.13 in 10.0 mi Calm Calm - N/A   Clear
10:53 AM 46.9 °F - 19.0 °F 33% 30.13 in 10.0 mi NNE 8.1 mph - N/A   Clear
11:53 AM 51.1 °F - 19.0 °F 28% 30.13 in 10.0 mi North 5.8 mph - N/A   Clear
12:53 PM 54.0 °F - 18.0 °F 24% 30.11 in 10.0 mi Variable 3.5 mph - N/A   Clear
1:53 PM 59.0 °F - 14.0 °F 17% 30.08 in 10.0 mi North - - N/A   Clear
2:53 PM 55.9 °F - 14.0 °F 19% 30.08 in 10.0 mi SSW 10.4 mph - N/A   Clear
3:53 PM 57.0 °F - 16.0 °F 20% 30.07 in 10.0 mi Variable 6.9 mph - N/A   Clear
4:53 PM 55.9 °F - 18.0 °F 23% 30.07 in 10.0 mi SSW 9.2 mph - N/A   Clear
5:53 PM 54.0 °F - 19.9 °F 26% 30.09 in 10.0 mi Variable 3.5 mph - N/A   Clear
6:53 PM 48.0 °F - 25.0 °F 41% 30.12 in 10.0 mi SW 3.5 mph - N/A   Clear
7:53 PM 43.0 °F - 26.1 °F 51% 30.15 in 10.0 mi Calm Calm - N/A   Clear
8:53 PM 39.0 °F - 27.0 °F 62% 30.15 in 10.0 mi Calm Calm - N/A   Clear
9:53 PM 37.0 °F - 26.1 °F 65% 30.12 in 10.0 mi Calm Calm - N/A   Clear
10:53 PM 34.0 °F - 25.0 °F 70% 30.12 in 10.0 mi Calm Calm - N/A   Clear
11:53 PM 30.9 °F 27.5 °F 24.1 °F 76% 30.12 in 10.0 mi SSW 3.5 mph - N/A   Clear